Regional Weather Roundup
Issued by NWS

Home | Current Version | Previous Version | Graphics & Text | Print | Product List | Glossary On
Versions: 1 2 3 4 5 6 7 8 9 10 11 12 13 14 15 16 17 18 19 20 21 22 23 24 25 26 27 28 29 30 31 32 33 34 35 36 37 38 39 40 41 42 43 44 45 46 47 48 49 50
000
ASUS43 KFSD 020310
RWRSD

WEATHER ROUNDUP FOR SOUTH DAKOTA
NATIONAL WEATHER SERVICE SIOUX FALLS SD
1000 PM CDT WED JUL 01 2015

NOTE: "FAIR" INDICATES FEW OR NO CLOUDS BELOW 12,000 FEET WITH NO
SIGNIFICANT WEATHER AND/OR OBSTRUCTIONS TO VISIBILITY.


SDZ001>005-009-010-012>017-020400-
NORTHWEST AND NORTH CENTRAL SOUTH DAKOTA

CITY           SKY/WX    TMP DP  RH WIND       PRES   REMARKS
BUFFALO          N/A     69  63  81 NE10      29.98R
FAITH            N/A     69  62  78 N6        30.00R
MOBRIDGE       MOCLDY    73  67  81 E9        29.93R
$$

SDZ012>016-024>037-041>051-057-063-072>074-020400-
SOUTHWEST AND SOUTH CENTRAL SOUTH DAKOTA

CITY           SKY/WX    TMP DP  RH WIND       PRES   REMARKS
RAPID CTY ARPT CLEAR     69  64  84 E5        30.00R
PIERRE         CLOUDY    71  66  84 E6        29.92R
CUSTER         CLEAR     65  61  87 E6        30.13S FOG
ELLSWORTH AFB  MOCLDY    72  65  79 SE5       30.01R
PHILIP         PTCLDY    72  66  81 NE7       29.94S
PINE RIDGE     CLEAR     70  64  81 NE6       30.00R
SPEARFISH      FAIR      68  64  88 SE8       30.05R
WINNER         MOCLDY    75  65  70 E3        29.93R
$$

SDZ004>011-016>023-039-040-020400-
NORTHEAST SOUTH DAKOTA

CITY           SKY/WX    TMP DP  RH WIND       PRES   REMARKS
ABERDEEN       PTCLDY    68  62  81 E7        29.95R
WATERTOWN      PTCLDY    64  55  72 SE6       29.98R
BROOKINGS      CLEAR     64  55  72 E9        30.00R
SISSETON         N/A     62  57  83 S7        29.97R
$$

SDZ017-020-022-023-036>040-048>070-020400-
SOUTHEAST SOUTH DAKOTA

CITY           SKY/WX    TMP DP  RH WIND       PRES   REMARKS
SIOUX FALLS    MOCLDY    67  51  56 SE9       29.96R
HURON          PTCLDY    69  65  86 SE7       29.94R
MITCHELL       MOCLDY    71  66  84 SE8       29.93F
YANKTON        PTCLDY    70  63  78 E6        29.93R
$$

ABBREVIATIONS USED IN REMARKS
   TC - TEMPERATURE IN CELSIUS
  WCI - WIND CHILL INDEX
   HX - HEAT INDEX
  VSB - VISIBILITY




USA.gov is the U.S. government's official web portal to all federal, state and local government web resources and services.